Time,TemperatureF,DewpointF,PressureIn,WindDirection,WindDirectionDegrees,WindSpeedMPH,WindSpeedGustMPH,Humidity,HourlyPrecipIn,Conditions,Clouds,dailyrainin,SoftwareType,DateUTC
2013-04-04 00:23:00,56.0,56.0,-100.00,NNE,17,8.0,-999.0,99,0.00,,,-99.99,,2013-04-04 05:23:00,
2013-04-04 00:32:00,56.0,56.0,-100.00,NNE,17,8.0,-999.0,99,0.00,,,-99.99,,2013-04-04 05:32:00,
2013-04-04 00:42:00,56.0,56.0,-100.00,NNE,17,8.0,-999.0,99,0.00,,,-99.99,,2013-04-04 05:42:00,
2013-04-04 01:22:00,55.0,-99.9,-100.00,North,358,8.0,-999.0,104,0.00,,,-99.99,,2013-04-04 06:22:00,
2013-04-04 01:33:00,55.0,-99.9,-100.00,North,358,8.0,-999.0,104,0.00,,,-99.99,,2013-04-04 06:33:00,
2013-04-04 01:43:00,55.0,-99.9,-100.00,North,358,8.0,-999.0,104,0.00,,,-99.99,,2013-04-04 06:43:00,
2013-04-04 02:22:00,54.0,-99.9,-100.00,North,2,7.0,-999.0,107,0.00,,,-99.99,,2013-04-04 07:22:00,
2013-04-04 02:32:00,54.0,-99.9,-100.00,North,2,7.0,-999.0,107,0.00,,,-99.99,,2013-04-04 07:32:00,
2013-04-04 02:43:00,54.0,-99.9,-100.00,North,2,7.0,-999.0,107,0.00,,,-99.99,,2013-04-04 07:43:00,
2013-04-04 03:23:00,55.0,-99.9,-100.00,North,3,7.0,-999.0,108,0.00,,,-99.99,,2013-04-04 08:23:00,
2013-04-04 03:33:00,55.0,-99.9,-100.00,North,3,7.0,-999.0,108,0.00,,,-99.99,,2013-04-04 08:33:00,
2013-04-04 03:44:00,55.0,-99.9,-100.00,North,3,7.0,-999.0,108,0.00,,,-99.99,,2013-04-04 08:44:00,
2013-04-04 04:23:00,55.0,-99.9,-100.00,NNE,26,7.0,-999.0,108,0.00,,,-99.99,,2013-04-04 09:23:00,
2013-04-04 04:34:00,55.0,-99.9,-100.00,NNE,26,7.0,-999.0,108,0.00,,,-99.99,,2013-04-04 09:34:00,
2013-04-04 04:44:00,55.0,-99.9,-100.00,NNE,26,7.0,-999.0,108,0.00,,,-99.99,,2013-04-04 09:44:00,
2013-04-04 05:25:00,55.0,-99.9,-100.00,NW,315,4.0,-999.0,108,0.00,,,-99.99,,2013-04-04 10:25:00,
2013-04-04 05:34:00,55.0,-99.9,-100.00,NW,315,4.0,-999.0,108,0.00,,,-99.99,,2013-04-04 10:34:00,
2013-04-04 05:43:00,55.0,-99.9,-100.00,NW,315,4.0,-999.0,108,0.00,,,-99.99,,2013-04-04 10:43:00,
2013-04-04 06:23:00,55.0,-99.9,-100.00,NW,324,6.0,-999.0,109,0.00,,,-99.99,,2013-04-04 11:23:00,
2013-04-04 06:34:00,55.0,-99.9,-100.00,NW,324,6.0,-999.0,109,0.00,,,-99.99,,2013-04-04 11:34:00,
2013-04-04 06:43:00,55.0,-99.9,-100.00,NW,324,6.0,-999.0,109,0.00,,,-99.99,,2013-04-04 11:43:00,
2013-04-04 07:23:00,55.0,-99.9,-100.00,NNW,328,6.0,-999.0,115,0.00,,,-99.99,,2013-04-04 12:23:00,
2013-04-04 07:33:00,55.0,-99.9,-100.00,NNW,328,6.0,-999.0,115,0.00,,,-99.99,,2013-04-04 12:33:00,
2013-04-04 07:44:00,55.0,-99.9,-100.00,NNW,328,6.0,-999.0,115,0.00,,,-99.99,,2013-04-04 12:44:00,
2013-04-04 08:22:00,54.0,-99.9,-100.00,North,350,8.0,-999.0,118,0.00,,,-99.99,,2013-04-04 13:22:00,
2013-04-04 08:33:00,54.0,-99.9,-100.00,North,350,8.0,-999.0,118,0.00,,,-99.99,,2013-04-04 13:33:00,
2013-04-04 08:43:00,54.0,-99.9,-100.00,North,350,8.0,-999.0,118,0.00,,,-99.99,,2013-04-04 13:43:00,
2013-04-04 09:22:00,55.0,-99.9,-100.00,North,349,6.0,-999.0,117,0.00,,,-99.99,,2013-04-04 14:22:00,
2013-04-04 09:33:00,55.0,-99.9,-100.00,North,349,6.0,-999.0,117,0.00,,,-99.99,,2013-04-04 14:33:00,
2013-04-04 09:43:00,55.0,-99.9,-100.00,North,349,6.0,-999.0,117,0.00,,,-99.99,,2013-04-04 14:43:00,
2013-04-04 10:24:00,58.0,-99.9,-100.00,NNW,340,6.0,-999.0,112,0.00,,,-99.99,,2013-04-04 15:24:00,
2013-04-04 10:34:00,58.0,-99.9,-100.00,NNW,340,6.0,-999.0,112,0.00,,,-99.99,,2013-04-04 15:34:00,
2013-04-04 10:44:00,58.0,-99.9,-100.00,NNW,340,6.0,-999.0,112,0.00,,,-99.99,,2013-04-04 15:44:00,
2013-04-04 11:24:00,61.0,61.0,-100.00,WNW,298,5.0,-999.0,100,0.00,,,-99.99,,2013-04-04 16:24:00,
2013-04-04 11:32:00,61.0,61.0,-100.00,WNW,298,5.0,-999.0,100,0.00,,,-99.99,,2013-04-04 16:32:00,
2013-04-04 11:42:00,61.0,61.0,-100.00,WNW,298,5.0,-999.0,100,0.00,,,-99.99,,2013-04-04 16:42:00,
2013-04-04 12:23:00,62.0,60.0,-100.00,West,279,6.0,-999.0,95,0.00,,,-99.99,,2013-04-04 17:23:00,
2013-04-04 12:33:00,62.0,60.0,-100.00,West,279,6.0,-999.0,95,0.00,,,-99.99,,2013-04-04 17:33:00,
2013-04-04 12:42:00,62.0,60.0,-100.00,West,279,6.0,-999.0,95,0.00,,,-99.99,,2013-04-04 17:42:00,
2013-04-04 13:23:00,63.0,61.0,-100.00,WSW,258,8.0,-999.0,94,0.00,,,-99.99,,2013-04-04 18:23:00,
2013-04-04 13:32:00,63.0,61.0,-100.00,WSW,258,8.0,-999.0,94,0.00,,,-99.99,,2013-04-04 18:32:00,
2013-04-04 13:43:00,63.0,61.0,-100.00,WSW,258,8.0,-999.0,94,0.00,,,-99.99,,2013-04-04 18:43:00,
2013-04-04 14:22:00,65.0,60.0,-100.00,WSW,245,7.0,-999.0,84,0.00,,,-99.99,,2013-04-04 19:22:00,
2013-04-04 14:33:00,65.0,60.0,-100.00,WSW,245,7.0,-999.0,84,0.00,,,-99.99,,2013-04-04 19:33:00,
2013-04-04 14:42:00,65.0,60.0,-100.00,WSW,245,7.0,-999.0,84,0.00,,,-99.99,,2013-04-04 19:42:00,
2013-04-04 15:23:00,64.0,60.0,-100.00,WSW,241,14.0,-999.0,86,0.00,,,-99.99,,2013-04-04 20:23:00,
2013-04-04 15:32:00,64.0,60.0,-100.00,WSW,241,14.0,-999.0,86,0.00,,,-99.99,,2013-04-04 20:32:00,
2013-04-04 15:42:00,64.0,60.0,-100.00,WSW,241,14.0,-999.0,86,0.00,,,-99.99,,2013-04-04 20:42:00,
2013-04-04 16:22:00,65.0,60.0,-100.00,WSW,246,11.0,-999.0,83,0.00,,,-99.99,,2013-04-04 21:22:00,
2013-04-04 16:32:00,65.0,60.0,-100.00,WSW,246,11.0,-999.0,83,0.00,,,-99.99,,2013-04-04 21:32:00,
2013-04-04 16:43:00,65.0,60.0,-100.00,WSW,246,11.0,-999.0,83,0.00,,,-99.99,,2013-04-04 21:43:00,
2013-04-04 17:23:00,65.0,60.0,-100.00,WSW,247,9.0,-999.0,83,0.00,,,-99.99,,2013-04-04 22:23:00,
2013-04-04 17:33:00,65.0,60.0,-100.00,WSW,247,9.0,-999.0,83,0.00,,,-99.99,,2013-04-04 22:33:00,
2013-04-04 17:42:00,65.0,60.0,-100.00,WSW,247,9.0,-999.0,83,0.00,,,-99.99,,2013-04-04 22:42:00,
2013-04-04 18:22:00,65.0,59.0,-100.00,WNW,286,9.0,-999.0,80,0.00,,,-99.99,,2013-04-04 23:22:00,
2013-04-04 18:32:00,65.0,59.0,-100.00,WNW,286,9.0,-999.0,80,0.00,,,-99.99,,2013-04-04 23:32:00,
2013-04-04 18:42:00,65.0,59.0,-100.00,WNW,286,9.0,-999.0,80,0.00,,,-99.99,,2013-04-04 23:42:00,
2013-04-04 19:22:00,63.0,58.0,-100.00,NW,326,11.0,-999.0,83,0.00,,,-99.99,,2013-04-05 00:22:00,
2013-04-04 19:32:00,63.0,58.0,-100.00,NW,326,11.0,-999.0,83,0.00,,,-99.99,,2013-04-05 00:32:00,
2013-04-04 19:42:00,63.0,58.0,-100.00,NW,326,11.0,-999.0,83,0.00,,,-99.99,,2013-04-05 00:42:00,
2013-04-04 20:22:00,61.0,57.0,-100.00,NW,324,11.0,-999.0,87,0.00,,,-99.99,,2013-04-05 01:22:00,
2013-04-04 20:32:00,61.0,57.0,-100.00,NW,324,11.0,-999.0,87,0.00,,,-99.99,,2013-04-05 01:32:00,
2013-04-04 20:42:00,61.0,57.0,-100.00,NW,324,11.0,-999.0,87,0.00,,,-99.99,,2013-04-05 01:42:00,
2013-04-04 21:22:00,60.0,56.0,-100.00,NW,323,10.0,-999.0,88,0.00,,,-99.99,,2013-04-05 02:22:00,
2013-04-04 21:32:00,60.0,56.0,-100.00,NW,323,10.0,-999.0,88,0.00,,,-99.99,,2013-04-05 02:32:00,
2013-04-04 21:42:00,60.0,56.0,-100.00,NW,323,10.0,-999.0,88,0.00,,,-99.99,,2013-04-05 02:42:00,
2013-04-04 22:22:00,56.0,-99.9,-100.00,NW,322,13.0,-999.0,103,0.00,,,-99.99,,2013-04-05 03:22:00,
2013-04-04 22:33:00,56.0,-99.9,-100.00,NW,322,13.0,-999.0,103,0.00,,,-99.99,,2013-04-05 03:33:00,
2013-04-04 22:43:00,56.0,-99.9,-100.00,NW,322,13.0,-999.0,103,0.00,,,-99.99,,2013-04-05 03:43:00,
2013-04-04 23:22:00,56.0,55.0,-100.00,NNW,335,12.0,-999.0,97,0.00,,,-99.99,,2013-04-05 04:22:00,
2013-04-04 23:32:00,56.0,55.0,-100.00,NNW,335,12.0,-999.0,97,0.00,,,-99.99,,2013-04-05 04:32:00,
2013-04-04 23:42:00,56.0,55.0,-100.00,NNW,335,12.0,-999.0,97,0.00,,,-99.99,,2013-04-05 04:42:00,